Home > Weather > Rustenburg > Past weeks

Flag for South Africa Past Weather in Rustenburg, South Africa — Yesterday and Last 2 Weeks

Now
61 °F

Passing clouds.


Feels Like: 61 °F
Forecast: 41 / 72 °F
Wind: 3 mph from Southwest

Location: Lanseria Civ / Mil

Current Time: May 28, 2016 at 8:17:53 PM

Latest Report: May 28, 2016 at 7:00 PM


Visibility: N/A

Pressure: 30.42 "Hg (26.50 "Hg at 1166m altitude)

Humidity: 48%

Dew Point: 41 °F

Location of RustenburgLocation

Past Weather in Rustenburg — Graph

°F

Rustenburg Temperature Yesterday

Maximum temperature yesterday: 66 °F (at 2:00 PM)
Minimum temperature yesterday: 45 °F (at 5:00 AM)
Average temperature yesterday: 58 °F

High & Low Weather Summary for the Past Weeks

 TemperatureHumidityPressure
High72 °F (May 17, 2:00 PM)100% (May 14, 11:00 AM)30.57 "Hg (May 14, 11:00 AM)
Low43 °F (May 24, 6:00 AM)26% (May 25, 1:00 PM)30.12 "Hg (May 13, 6:00 PM)
Average58 °F69%30.42 "Hg
* Reported May 13 6:00 PM — May 28 6:00 PM, Rustenburg, Weather by CustomWeather, © 2016

Note: Actual official high and low records may vary slightly from our data, if they occured in-between our weather recording intervals... More about our weather records

Advertising

Rustenburg Weather History for the Previous 24 Hours

Scroll right to see more
 ConditionsComfort  
Time TempWeatherWind HumidityBarometerVisibility
6:00 PM
Sat, May 28
61 °FClear.3 mph48%30.39 "Hg10 mi
5:00 PM66 °FPassing clouds.3 mph35%30.39 "HgN/A
4:00 PM68 °FPassing clouds.5 mph33%30.39 "HgN/A
3:00 PM68 °FPassing clouds.6 mph33%30.39 "HgN/A
2:00 PM66 °FScattered clouds.6 mph35%30.39 "HgN/A
1:00 PM66 °FScattered clouds.6 mph40%30.42 "HgN/A
12:00 PM64 °FPassing clouds.3 mph46%30.45 "HgN/A
11:00 AM63 °FPassing clouds.5 mph56%30.48 "HgN/A
10:00 AM59 °FSunny.2 mph63%30.51 "Hg10 mi
9:00 AM52 °FPassing clouds.3 mph72%30.48 "HgN/A
8:00 AM48 °FClear.3 mph82%30.48 "Hg5 mi
7:00 AM46 °FClear.3 mph82%30.45 "Hg5 mi
6:00 AM50 °FSunny.2 mph71%30.42 "Hg10 mi
5:00 AM48 °FClear.2 mph76%30.42 "Hg10 mi
4:00 AM48 °FCool.2 mph76%30.42 "HgN/A
3:00 AM50 °FCool.2 mph71%30.42 "HgN/A
2:00 AM52 °FCool.6 mph67%30.42 "HgN/A
1:00 AM48 °FCool.3 mph76%30.45 "HgN/A
10:00 PM
Fri, May 27
54 °FClear.5 mph63%30.42 "Hg10 mi
9:00 PM57 °FPassing clouds.3 mph55%30.42 "HgN/A
8:00 PM57 °FClear.8 mph59%30.42 "Hg10 mi
Weather by CustomWeather, © 2016

See weather overviewHow to use our weather pages